H1 CPF 2 NER 2025 11 4 9 308 01 glonass131 H2 1301901 9131 39155 2025 11 4 0 0 0 2025 11 7 23 45 0 900 1 1 0 0 0 1 H9 10 0 60983 0.00000 0 1581678.928 -11847639.118 -22481914.751 10 0 60983 900.00000 0 3854216.074 -10175479.802 -23024935.365 10 0 60983 1800.00000 0 6277736.369 -8656906.705 -23118635.782 10 0 60983 2700.00000 0 8792628.506 -7331097.550 -22761479.097 10 0 60983 3600.00000 0 11333548.522 -6226056.511 -21960747.364 10 0 60983 4500.00000 0 13831958.646 -5357603.193 -20732373.785 10 0 60983 5400.00000 0 16218806.233 -4728893.745 -19100604.702 10 0 60983 6300.00000 0 18427230.259 -4330491.060 -17097499.971 10 0 60983 7200.00000 0 20395182.327 -4140977.636 -14762283.429 10 0 60983 8100.00000 0 22067853.486 -4128081.729 -12140557.871 10 0 60983 9000.00000 0 23399807.010 -4250266.142 -9283401.298 10 0 60983 9900.00000 0 24356730.084 -4458709.909 -6246363.252 10 0 60983 10800.00000 0 24916733.860 -4699597.328 -3088381.480 10 0 60983 11700.00000 0 25071150.356 -4916616.566 129359.660 10 0 60983 12600.00000 0 24824795.798 -5053562.092 3344607.011 10 0 60983 13500.00000 0 24195692.038 -5056931.627 6495230.396 10 0 60983 14400.00000 0 23214259.861 -4878409.166 9520406.308 10 0 60983 15300.00000 0 21922019.414 -4477130.951 12361772.066 10 0 60983 16200.00000 0 20369852.724 -3821640.620 14964529.862 10 0 60983 17100.00000 0 18615900.662 -2891452.776 17278481.439 10 0 60983 18000.00000 0 16723181.108 -1678160.355 19258975.490 10 0 60983 18900.00000 0 14757025.898 -186039.692 20867751.565 10 0 60983 19800.00000 0 12782441.112 1567872.572 22073666.063 10 0 60983 20700.00000 0 10861498.164 3554235.381 22853287.688 10 0 60983 21600.00000 0 9050861.842 5732375.242 23191351.844 10 0 60983 22500.00000 0 7399556.038 8051736.876 23081065.394 10 0 60983 23400.00000 0 5947058.609 10453755.630 22524255.443 10 0 60983 24300.00000 0 4721803.870 12874077.510 21531358.095 10 0 60983 25200.00000 0 3740155.071 15245038.030 20121245.509 10 0 60983 26100.00000 0 3005890.506 17498299.767 18320892.274 10 0 60983 27000.00000 0 2510226.098 19567541.092 16164884.838 10 0 60983 27900.00000 0 2232375.369 21391085.278 13694780.701 10 0 60983 28800.00000 0 2140625.227 22914360.409 10958327.164 10 0 60983 29700.00000 0 2193884.194 24092086.376 8008552.569 10 0 60983 30600.00000 0 2343639.156 24890095.590 4902746.030 10 0 60983 31500.00000 0 2536238.693 25286708.550 1701344.689 10 0 60983 32400.00000 0 2715406.182 25273603.709 -1533249.897 10 0 60983 33300.00000 0 2824875.091 24856142.262 -4737902.333 10 0 60983 34200.00000 0 2811032.728 24053131.826 -7849995.348 10 0 60983 35100.00000 0 2625457.550 22896037.244 -10808676.577 10 0 60983 36000.00000 0 2227239.239 21427670.962 -13556073.311 10 0 60983 36900.00000 0 1584979.793 19700418.287 -16038448.840 10 0 60983 37800.00000 0 678387.689 17774073.325 -18207275.311 10 0 60983 38700.00000 0 -500605.098 15713378.407 -20020199.998 10 0 60983 39600.00000 0 -1947252.469 13585372.748 -21441884.465 10 0 60983 40500.00000 0 -3643956.109 11456664.037 -22444699.248 10 0 60983 41400.00000 0 -5560781.964 9390739.575 -23009260.207 10 0 60983 42300.00000 0 -7656509.127 7445431.322 -23124796.396 10 0 60983 43200.00000 0 -9880166.107 5670641.818 -22789343.265 10 0 60983 44100.00000 0 -12172988.675 4106426.002 -22009758.815 10 0 60983 45000.00000 0 -14470715.677 2781508.079 -20801564.173 10 0 60983 45900.00000 0 -16706125.353 1712293.340 -19188613.665 10 0 60983 46800.00000 0 -18811705.016 902413.362 -17202602.801 10 0 60983 47700.00000 0 -20722341.907 342820.157 -14882425.748 10 0 60983 48600.00000 0 -22377922.922 12421.542 -12273396.564 10 0 60983 49500.00000 0 -23725735.354 -120772.705 -9426350.843 10 0 60983 50400.00000 0 -24722569.776 -98045.407 -6396646.471 10 0 60983 51300.00000 0 -25336439.226 32022.389 -3243083.688 10 0 60983 52200.00000 0 -25547845.230 215848.793 -26765.791 10 0 60983 53100.00000 0 -25350540.318 397353.557 3190077.471 10 0 60983 54000.00000 0 -24751757.682 520560.029 6345281.561 10 0 60983 54900.00000 0 -23771900.542 532187.472 9377931.821 10 0 60983 55800.00000 0 -22443705.832 384125.747 12229519.579 10 0 60983 56700.00000 0 -20810918.036 35689.687 14845049.149 10 0 60983 57600.00000 0 -18926528.562 -544440.035 17174076.323 10 0 60983 58500.00000 0 -16850653.295 -1376669.781 19171660.404 10 0 60983 59400.00000 0 -14648135.204 -2469403.613 20799213.475 10 0 60983 60300.00000 0 -12385969.576 -3818457.351 22025232.399 10 0 60983 61200.00000 0 -10130656.469 -5407001.352 22825900.849 10 0 60983 62100.00000 0 -7945587.723 -7206036.103 23185550.723 10 0 60983 63000.00000 0 -5888574.621 -9175383.413 23096974.311 10 0 60983 63900.00000 0 -4009616.923 -11265155.048 22561580.741 10 0 60983 64800.00000 0 -2349004.560 -13417641.248 21589392.529 10 0 60983 65700.00000 0 -935830.366 -15569544.066 20198880.473 10 0 60983 66600.00000 0 213024.011 -17654465.801 18416637.735 10 0 60983 67500.00000 0 1093385.816 -19605551.451 16276896.731 10 0 60983 68400.00000 0 1713750.221 -21358176.683 13820895.387 10 0 60983 69300.00000 0 2094700.615 -22852569.707 11096102.395 10 0 60983 70200.00000 0 2267812.675 -24036256.917 8155314.262 10 0 60983 71100.00000 0 2274086.829 -24866228.349 5055639.992 10 0 60983 72000.00000 0 2161974.234 -25310729.753 1857392.306 10 0 60983 72900.00000 0 1985079.498 -25350603.117 -1377093.126 10 0 60983 73800.00000 0 1799638.061 -24980116.166 -4584686.619 10 0 60983 74700.00000 0 1661876.699 -24207243.062 -7702716.081 10 0 60983 75600.00000 0 1625371.447 -23053382.113 -10670214.705 10 0 60983 76500.00000 0 1738517.944 -21552520.814 -13429137.947 10 0 60983 77400.00000 0 2042224.706 -19749882.788 -15925523.284 10 0 60983 78300.00000 0 2567930.333 -17700113.897 -18110567.660 10 0 60983 79200.00000 0 3336031.471 -15465085.032 -19941599.369 10 0 60983 80100.00000 0 4354790.361 -13111405.713 -21382923.732 10 0 60983 81000.00000 0 5619769.630 -10707755.037 -22406525.057 10 0 60983 81900.00000 0 7113818.910 -8322143.985 -22992610.835 10 0 60983 82800.00000 0 8807613.674 -6019225.574 -23129987.893 10 0 60983 83700.00000 0 10660722.847 -3857766.540 -22816264.082 10 0 60983 84600.00000 0 12623158.978 -1888386.542 -22057872.976 10 0 60983 85500.00000 0 14637344.302 -151658.726 -20869922.851 10 0 60984 0.00000 0 16640408.443 1323350.557 -19275875.003 10 0 60984 900.00000 0 18566721.133 2520045.155 -17307058.756 10 0 60984 1800.00000 0 20350550.186 3434726.743 -15002036.785 10 0 60984 2700.00000 0 21928736.601 4076475.128 -12405832.079 10 0 60984 3600.00000 0 23243272.385 4466488.182 -9569035.119 10 0 60984 4500.00000 0 24243675.166 4636913.645 -6546809.103 10 0 60984 5400.00000 0 24889061.544 4629225.054 -3397813.480 10 0 60984 6300.00000 0 25149834.434 4492212.687 -183067.057 10 0 60984 7200.00000 0 25008915.996 4279675.833 3035227.271 10 0 60984 8100.00000 0 24462476.939 4047914.377 6194873.955 10 0 60984 9000.00000 0 23520133.786 3853125.313 9234870.299 10 0 60984 9900.00000 0 22204607.514 3748812.989 12096564.454 10 0 60984 10800.00000 0 20550858.910 3783320.754 14724765.295 10 0 60984 11700.00000 0 18604736.915 3997586.211 17068784.702 10 0 60984 12600.00000 0 16421195.776 4423212.798 19083394.224 10 0 60984 13500.00000 0 14062153.844 5080937.398 20729679.714 10 0 60984 14400.00000 0 11594080.972 5979557.564 21975779.351 10 0 60984 15300.00000 0 9085412.237 7115363.400 22797492.241 10 0 60984 16200.00000 0 6603892.564 8472098.926 23178746.853 10 0 60984 17100.00000 0 4213959.633 10021456.478 23111920.578 10 0 60984 18000.00000 0 1974271.268 11724086.213 22598003.813 10 0 60984 18900.00000 0 -64521.970 13531081.881 21646604.306 10 0 60984 19800.00000 0 -1861667.653 15385884.411 20275789.885 10 0 60984 20700.00000 0 -3387787.507 17226527.303 18511770.287 10 0 60984 21600.00000 0 -4625876.658 18988133.039 16388421.558 10 0 60984 22500.00000 0 -5571783.298 20605558.452 13946659.438 10 0 60984 23400.00000 0 -6234147.099 22016079.540 11233671.204 10 0 60984 24300.00000 0 -6633797.173 23162003.386 8302018.602 10 0 60984 25200.00000 0 -6802633.217 23993096.578 5208627.547 10 0 60984 26100.00000 0 -6782035.693 24468726.069 2013683.356 10 0 60984 27000.00000 0 -6620871.526 24559619.703 -1220547.105 10 0 60984 27900.00000 0 -6373179.876 24249169.093 -4430942.671 10 0 60984 28800.00000 0 -6095637.045 23534216.748 -7554779.050 10 0 60984 29700.00000 0 -5844909.907 22425291.385 -10530977.395 10 0 60984 30600.00000 0 -5675012.658 20946279.264 -13301323.425 10 0 60984 31500.00000 0 -5634782.022 19133544.005 -15811630.603 10 0 60984 32400.00000 0 -5765581.046 17034531.522 -18012822.140 10 0 60984 33300.00000 0 -6099331.748 14705919.234 -19861908.507 10 0 60984 34200.00000 0 -6656962.314 12211388.606 -21322839.649 10 0 60984 35100.00000 0 -7447336.300 9619116.287 -22367214.232 10 0 60984 36000.00000 0 -8466709.974 6999090.970 -22974831.698 10 0 60984 36900.00000 0 -9698740.810 4420370.179 -23134076.672 10 0 60984 37800.00000 0 -11115046.075 1948393.116 -22842129.107 10 0 60984 38700.00000 0 -12676286.717 -357537.501 -22104997.496 10 0 60984 39600.00000 0 -14333729.297 -2446499.602 -20937376.206 10 0 60984 40500.00000 0 -16031218.476 -4277829.430 -19362331.727 10 0 60984 41400.00000 0 -17707475.540 -5822556.426 -17410825.910 10 0 60984 42300.00000 0 -19298625.059 -7064338.333 -15121087.496 10 0 60984 43200.00000 0 -20740842.773 -7999860.948 -12537845.928 10 0 60984 44100.00000 0 -21973013.377 -8638689.727 -9711443.902 10 0 60984 45000.00000 0 -22939287.104 -9002583.333 -6696847.145 10 0 60984 45900.00000 0 -23591428.939 -9124301.601 -3552571.468 10 0 60984 46800.00000 0 -23890863.522 -9045961.055 -339548.348 10 0 60984 47700.00000 0 -23810331.981 -8817009.434 2880048.997 10 0 60984 48600.00000 0 -23335093.356 -8491905.850 6043996.767 10 0 60984 49500.00000 0 -22463622.332 -8127604.715 9091206.901 10 0 60984 50400.00000 0 -21207775.772 -7780948.937 11962886.924 10 0 60984 51300.00000 0 -19592422.250 -7506080.993 14603652.630 10 0 60984 52200.00000 0 -17654550.455 -7351979.201 16962574.107 10 0 60984 53100.00000 0 -15441893.296 -7360220.958 18994136.941 10 0 60984 54000.00000 0 -13011123.783 -7563065.238 20659102.179 10 0 60984 54900.00000 0 -10425695.732 -7981933.553 21925250.304 10 0 60984 55800.00000 0 -7753416.470 -8626352.458 22767996.395 10 0 60984 56700.00000 0 -5063849.336 -9493402.180 23170865.582 10 0 60984 57600.00000 0 -2425650.682 -10567695.609 23125820.009 10 0 60984 58500.00000 0 96051.019 -11821890.601 22633430.596 10 0 60984 59400.00000 0 2442127.616 -13217716.968 21702889.229 10 0 60984 60300.00000 0 4561674.405 -14707478.479 20351859.355 10 0 60984 61200.00000 0 6413892.411 -16235970.448 18606165.585 10 0 60984 62100.00000 0 7969551.553 -17742735.885 16499325.634 10 0 60984 63000.00000 0 9211972.964 -19164568.318 14071930.841 10 0 60984 63900.00000 0 10137488.033 -20438158.124 11370884.626 10 0 60984 64800.00000 0 10755353.220 -21502772.004 8448511.317 10 0 60984 65700.00000 0 11087122.439 -22302852.527 5361550.932 10 0 60984 66600.00000 0 11165501.827 -22790426.839 2170058.491 10 0 60984 67500.00000 0 11032734.170 -22927220.607 -1063770.857 10 0 60984 68400.00000 0 10738580.912 -22686385.003 -4276827.317 10 0 60984 69300.00000 0 10337987.703 -22053760.509 -7406337.123 10 0 60984 70200.00000 0 9888533.749 -21028620.946 -10391111.941 10 0 60984 71100.00000 0 9447775.269 -19623863.533 -13172770.105 10 0 60984 72000.00000 0 9070598.352 -17865634.854 -15696903.172 10 0 60984 72900.00000 0 8806696.455 -15792407.330 -17914162.461 10 0 60984 73800.00000 0 8698282.263 -13453544.795 -19781242.155 10 0 60984 74700.00000 0 8778133.411 -10907418.135 -21261738.006 10 0 60984 75600.00000 0 9068056.620 -8219151.393 -22326863.838 10 0 60984 76500.00000 0 9577836.333 -5458094.515 -22956011.441 10 0 60984 77400.00000 0 10304712.501 -2695130.350 -23137143.225 10 0 60984 78300.00000 0 11233408.982 69.946 -22867010.856 10 0 60984 79200.00000 0 12336710.113 2561727.469 -22151196.983 10 0 60984 80100.00000 0 13576559.375 4930459.886 -21003980.988 10 0 60984 81000.00000 0 14905631.870 7055505.705 -19448033.326 10 0 60984 81900.00000 0 16269312.422 8896577.235 -17513946.424 10 0 60984 82800.00000 0 17607994.252 10425267.337 -15239613.240 10 0 60984 83700.00000 0 18859600.235 11625954.402 -12669467.421 10 0 60984 84600.00000 0 19962219.936 12496171.396 -9853601.338 10 0 60984 85500.00000 0 20856751.461 13046427.396 -6846780.433 10 0 60985 0.00000 0 21489437.618 13299492.909 -3707374.150 10 0 60985 900.00000 0 21814191.266 13289182.441 -496222.908 10 0 60985 1800.00000 0 21794613.032 13058687.936 2724532.666 10 0 60985 2700.00000 0 21405619.711 12658535.531 5892643.642 10 0 60985 3600.00000 0 20634616.054 12144252.124 8946939.551 10 0 60985 4500.00000 0 19482162.923 11573840.197 11828489.987 10 0 60985 5400.00000 0 17962115.040 11005166.258 14481720.060 10 0 60985 6300.00000 0 16101223.157 10493371.306 16855460.114 10 0 60985 7200.00000 0 13938217.076 10088410.306 18903911.485 10 0 60985 8100.00000 0 11522406.742 9832822.069 20587511.756 10 0 60985 9000.00000 0 8911857.745 9759821.377 21873684.713 10 0 60985 9900.00000 0 6171214.614 9891792.137 22737462.031 10 0 60985 10800.00000 0 3369259.234 10239244.170 23161965.734 10 0 60985 11700.00000 0 576302.429 10800277.674 23138742.534 10 0 60985 12600.00000 0 -2138486.260 11560579.078 22667943.235 10 0 60985 13500.00000 0 -4709702.716 12493950.537 21758342.739 10 0 60985 14400.00000 0 -7078179.673 13563353.676 20427198.511 10 0 60985 15300.00000 0 -9193204.181 14722427.000 18699947.968 10 0 60985 16200.00000 0 -11014389.467 15917416.538 16609748.012 10 0 60985 17100.00000 0 -12513122.865 17089441.557 14196862.773 10 0 60985 18000.00000 0 -13673528.284 18177002.390 11507908.764 10 0 60985 18900.00000 0 -14492901.285 19118626.142 8594969.729 10 0 60985 19800.00000 0 -14981596.667 19855539.072 5514596.585 10 0 60985 20700.00000 0 -15162371.426 20334252.014 2326710.899 10 0 60985 21600.00000 0 -15069209.295 20508947.741 -906566.938 10 0 60985 22500.00000 0 -14745675.663 20343566.668 -4122141.384 10 0 60985 23400.00000 0 -14242872.387 19813499.431 -7257191.881 10 0 60985 24300.00000 0 -13617079.899 18906811.409 -10250423.039 10 0 60985 25200.00000 0 -12927188.160 17624944.215 -13043287.941 10 0 60985 26100.00000 0 -12232027.647 15982861.893 -15581158.038 10 0 60985 27000.00000 0 -11587716.184 14008633.790 -17814414.198 10 0 60985 27900.00000 0 -11045136.818 11742470.695 -19699435.392 10 0 60985 28800.00000 0 -10647656.102 9235254.761 -21199463.903 10 0 60985 29700.00000 0 -10429181.369 6546625.727 -22285329.103 10 0 60985 30600.00000 0 -10412640.431 3742704.991 -22936015.219 10 0 60985 31500.00000 0 -10608948.388 893554.497 -23139062.238 10 0 60985 32400.00000 0 -11016504.703 -1929521.704 -22890793.029 10 0 60985 33300.00000 0 -11621240.534 -4656719.258 -22196363.592 10 0 60985 34200.00000 0 -12397212.465 -7222403.544 -21069637.200 10 0 60985 35100.00000 0 -13307715.363 -9567596.656 -19532886.837 10 0 60985 36000.00000 0 -14306865.078 -11642178.653 -17616333.753 10 0 60985 36900.00000 0 -15341582.089 -13406713.051 -15357533.113 10 0 60985 37800.00000 0 -16353890.639 -14833823.097 -12800620.523 10 0 60985 38700.00000 0 -17283435.198 -15909064.615 -9995435.613 10 0 60985 39600.00000 0 -18070107.605 -16631262.589 -6996541.019 10 0 60985 40500.00000 0 -18656674.304 -17012301.180 -3862156.649 10 0 60985 41400.00000 0 -18991293.773 -17076379.526 -653030.362 10 0 60985 42300.00000 0 -19029819.474 -16858767.619 2568733.009 10 0 60985 43200.00000 0 -18737793.116 -16404116.858 5740862.065 10 0 60985 44100.00000 0 -18092046.279 -15764397.732 8802106.559 10 0 60985 45000.00000 0 -17081844.866 -14996551.827 11693400.735 10 0 60985 45900.00000 0 -15709529.790 -14159956.480 14358981.485 10 0 60985 46800.00000 0 -13990627.867 -13313807.398 16747441.693 10 0 60985 47700.00000 0 -11953428.360 -12514527.438 18812700.463 10 0 60985 48600.00000 0 -9638042.078 -11813308.217 20514873.612 10 0 60985 49500.00000 0 -7094980.599 -11253885.584 21821029.530 10 0 60985 50400.00000 0 -4383312.355 -10870640.419 22705817.361 10 0 60985 51300.00000 0 -1568469.177 -10687103.072 23151956.457 10 0 60985 52200.00000 0 1280209.000 -10714923.625 23150578.090 10 0 60985 53100.00000 0 4092092.876 -10953351.516 22701412.530 10 0 60985 54000.00000 0 6797940.520 -11389247.621 21812816.886 10 0 60985 54900.00000 0 9332523.790 -11997630.379 20501641.469 10 0 60985 55800.00000 0 11637097.281 -12742735.739 18792935.001 10 0 60985 56700.00000 0 13661608.223 -13579549.370 16719491.734 10 0 60985 57600.00000 0 15366555.430 -14455749.640 14321246.428 10 0 60985 58500.00000 0 16724418.911 -15313982.068 11644526.206 10 0 60985 59400.00000 0 17720598.942 -16094371.148 8741171.434 10 0 60985 60300.00000 0 18353823.279 -16737164.358 5667540.860 10 0 60985 61200.00000 0 18636003.386 -17185396.323 2483419.333 10 0 60985 62100.00000 0 18591543.849 -17387459.118 -749150.889 10 0 60985 63000.00000 0 18256132.771 -17299467.584 -3967091.877 10 0 60985 63900.00000 0 17675063.579 -16887316.507 -7107539.511 10 0 60985 64800.00000 0 16901159.478 -16128339.150 -10109094.332 10 0 60985 65700.00000 0 15992389.469 -15012493.556 -12913046.858 10 0 60985 66600.00000 0 15009278.739 -13543023.358 -15464550.755 10 0 60985 67500.00000 0 14012225.476 -11736562.767 -17713718.371 10 0 60985 68400.00000 0 13058840.332 -9622679.667 -19616614.984 10 0 60985 69300.00000 0 12201423.696 -7242875.370 -21136130.515 10 0 60985 70200.00000 0 11484689.599 -4649083.261 -22242710.562 10 0 60985 71100.00000 0 10943833.949 -1901730.192 -22914932.037 10 0 60985 72000.00000 0 10603029.331 932556.751 -23139912.350 10 0 60985 72900.00000 0 10474409.619 3783500.628 -22913545.032 10 0 60985 73800.00000 0 10557586.107 6579874.218 -22240558.551 10 0 60985 74700.00000 0 10839713.645 9252235.007 -21134398.866 10 0 60985 75600.00000 0 11296101.585 11735581.158 -19616940.013 10 0 60985 76500.00000 0 11891341.061 13971818.080 -17718030.330 10 0 60985 77400.00000 0 12580898.394 15911933.972 -15474885.201 10 0 60985 78300.00000 0 13313105.010 17517795.651 -12931339.948 10 0 60985 79200.00000 0 14031458.026 18763492.493 -10136978.970 10 0 60985 80100.00000 0 14677133.205 19636175.598 -7146159.360 10 0 60985 81000.00000 0 15191603.746 20136360.682 -4016948.838 10 0 60985 81900.00000 0 15519254.701 20277685.531 -809999.046 10 0 60985 82800.00000 0 15609883.645 20086135.416 2412623.850 10 0 60985 83700.00000 0 15420983.632 19598771.630 5588629.097 10 0 60985 84600.00000 0 14919713.983 18862018.357 8656689.668 10 0 60985 85500.00000 0 14084477.753 17929580.787 11557607.231 10 0 60986 0.00000 0 12906041.232 16860081.997 14235432.738 10 0 60986 900.00000 0 11388148.895 15714516.341 16638524.291 10 0 60986 1800.00000 0 9547610.056 14553626.091 18720520.378 10 0 60986 2700.00000 0 7413851.081 13435307.337 20441216.563 10 0 60986 3600.00000 0 5027952.003 12412152.977 21767327.001 10 0 60986 4500.00000 0 2441204.955 11529232.949 22673119.094 10 0 60986 5400.00000 0 -286748.382 10822202.888 23140909.908 10 0 60986 6300.00000 0 -3090126.328 10315819.142 23161415.225 10 0 60986 7200.00000 0 -5899475.599 10022921.916 22733944.261 10 0 60986 8100.00000 0 -8644299.581 9943929.557 21866435.317 10 0 60986 9000.00000 0 -11255740.567 10066866.509 20575330.011 10 0 60986 9900.00000 0 -13669206.920 10367925.785 18885286.324 10 0 60986 10800.00000 0 -15826837.550 10812544.861 16828733.349 10 0 60986 11700.00000 0 -17679701.653 11356952.452 14445273.571 10 0 60986 12600.00000 0 -19189641.546 11950123.554 11780941.529 10 0 60986 13500.00000 0 -20330680.342 12536062.319 8887330.840 10 0 60986 14400.00000 0 -21089933.611 13056317.579 5820604.658 10 0 60986 15300.00000 0 -21467984.549 13452624.856 2640407.736 10 0 60986 16200.00000 0 -21478704.669 13669562.195 -591299.060 10 0 60986 17100.00000 0 -21148525.705 13657105.431 -3811458.481 10 0 60986 18000.00000 0 -20515192.229 13372971.917 -6957165.691 10 0 60986 18900.00000 0 -19626047.257 12784650.116 -9966919.749 10 0 60986 19800.00000 0 -18535923.809 11871025.586 -12781850.894 10 0 60986 20700.00000 0 -17304732.941 10623531.212 -15346896.943 10 0 60986 21600.00000 0 -15994852.303 9046770.161 -17611903.274 10 0 60986 22500.00000 0 -14668428.035 7158583.070 -19532622.600 10 0 60986 23400.00000 0 -13384706.598 4989555.371 -21071593.169 10 0 60986 24300.00000 0 -12197511.495 2581985.052 -22198877.075 10 0 60986 25200.00000 0 -11152973.095 -11645.385 -22892643.781 10 0 60986 26100.00000 0 -10287608.286 -2730627.647 -23139587.613 10 0 60986 27000.00000 0 -9626830.887 -5508333.637 -22935171.937 10 0 60986 27900.00000 0 -9183954.677 -8274770.826 -22283696.551 10 0 60986 28800.00000 0 -8959729.207 -10959278.949 -21198188.711 10 0 60986 29700.00000 0 -8942425.473 -13493254.692 -19700121.870 10 0 60986 30600.00000 0 -9108464.874 -15812790.538 -17818969.619 10 0 60986 31500.00000 0 -9423561.872 -17861118.317 -15591605.559 10 0 60986 32400.00000 0 -9844329.192 -19590756.942 -13061562.609 10 0 60986 33300.00000 0 -10320275.331 -20965276.885 -10278167.742 10 0 60986 34200.00000 0 -10796108.102 -21960610.481 -7295570.278 10 0 60986 35100.00000 0 -11214245.818 -22565856.494 -4171683.496 10 0 60986 36000.00000 0 -11517429.708 -22783548.643 -967060.584 10 0 60986 36900.00000 0 -11651327.650 -22629380.047 2256273.223 10 0 60986 37800.00000 0 -11567020.403 -22131397.957 5436010.085 10 0 60986 38700.00000 0 -11223266.948 -21328704.709 8510748.479 10 0 60986 39600.00000 0 -10588455.211 -20269720.696 11421159.797 10 0 60986 40500.00000 0 -9642157.715 -19010082.673 14111111.771 10 0 60986 41400.00000 0 -8376228.094 -17610264.972 16528728.936 10 0 60986 42300.00000 0 -6795393.220 -16133022.059 18627371.690 10 0 60986 43200.00000 0 -4917316.101 -14640757.538 20366517.153 10 0 60986 44100.00000 0 -2772126.004 -13192927.392 21712526.766 10 0 60986 45000.00000 0 -401433.624 -11843583.602 22639287.376 10 0 60986 45900.00000 0 2143130.300 -10639158.562 23128714.582 10 0 60986 46800.00000 0 4801795.387 -9616581.061 23171109.134 10 0 60986 47700.00000 0 7508876.480 -8801801.465 22765359.266 10 0 60986 48600.00000 0 10195254.247 -8208787.425 21918984.173 10 0 60986 49500.00000 0 12791011.956 -7839032.685 20648016.147 10 0 60986 50400.00000 0 15228121.664 -7681600.909 18976721.429 10 0 60986 51300.00000 0 17443070.188 -7713704.647 16937162.610 10 0 60986 52200.00000 0 19379316.559 -7901797.443 14568608.192 10 0 60986 53100.00000 0 20989478.468 -8203135.498 11916798.043 10 0 60986 54000.00000 0 22237155.359 -8567745.160 9033076.562 10 0 60986 54900.00000 0 23098310.133 -8940714.631 5973408.472 10 0 60986 55800.00000 0 23562149.141 -9264713.626 2797295.262 10 0 60986 56700.00000 0 23631461.058 -9482633.944 -433386.987 10 0 60986 57600.00000 0 23322398.046 -9540237.659 -3655605.227 10 0 60986 58500.00000 0 22663706.597 -9388698.356 -6806417.407 10 0 60986 59400.00000 0 21695439.470 -8986924.636 -9824224.455 10 0 60986 60300.00000 0 20467202.893 -8303563.982 -12649999.396 10 0 60986 61200.00000 0 19036013.835 -7318598.630 -15228466.918 10 0 60986 62100.00000 0 17463859.389 -6024462.725 -17509207.740 10 0 60986 63000.00000 0 15815063.409 -4426630.933 -19447663.894 10 0 60986 63900.00000 0 14153573.992 -2543651.841 -21006023.413 10 0 60986 64800.00000 0 12540288.508 -406623.819 -22153965.924 10 0 60986 65700.00000 0 11030530.875 1941864.731 -22869254.066 10 0 60986 66600.00000 0 9671788.577 4449285.555 -23138159.315 10 0 60986 67500.00000 0 8501805.051 7055144.978 -22955714.709 10 0 60986 68400.00000 0 7547107.073 9693298.521 -22325790.862 10 0 60986 69300.00000 0 6822027.544 12294507.422 -21260995.460 10 0 60986 70200.00000 0 6328262.341 14789129.141 -19782400.182 10 0 60986 71100.00000 0 6054976.867 17109828.868 -17919102.378 10 0 60986 72000.00000 0 5979454.450 19194198.859 -15707632.070 10 0 60986 72900.00000 0 6068255.846 20987177.069 -13191217.681 10 0 60986 73800.00000 0 6278837.848 22443165.656 -10418926.373 10 0 60986 74700.00000 0 6561560.080 23527763.053 -7444697.027 10 0 60986 75600.00000 0 6861993.394 24219039.973 -4326285.580 10 0 60986 76500.00000 0 7123431.292 24508309.013 -1124143.649 10 0 60986 77400.00000 0 7289498.116 24400358.689 2099747.678 10 0 60986 78300.00000 0 7306744.387 23913144.967 5283066.737 10 0 60986 79200.00000 0 7127120.958 23076955.512 8364340.694 10 0 60986 80100.00000 0 6710229.139 21933083.328 11284113.693 10 0 60986 81000.00000 0 6025253.751 20532066.097 13986072.819 10 0 60986 81900.00000 0 5052499.235 18931564.820 16418112.048 10 0 60986 82800.00000 0 3784465.427 17193969.555 18533315.643 10 0 60986 83700.00000 0 2226418.291 15383830.599 20290844.155 10 0 60986 84600.00000 0 396431.294 13565220.200 21656707.821 10 0 60986 85500.00000 0 -1675105.613 11799132.384 22604414.075 99